[[{"header":{"parameterUnit":"m.s-1","parameterCategory":2,"la1":30.2991,"la2":30.254,"lo1":-89.0895,"lo2":-89.0444,"dy":0.0017,"dx":0.0017,"nx":28,"ny":28,"refTime":"2025-04-19T03:00:00:Z","depth":"0","parameterNumber":2,"parameterNumberName":"U-component_of_CURRENTS"},"data":[0,0,0,0,0,0,0,0,0,0,0,0,0,0,0,0,0,0,0,0,0,0,0,0,0,0,0,0,0,0,0,0,0,0,0,0,0,0,0,0,0,0,0,0,0,0,0,0,0,0,0,0,0,0,0,0,0,0,0.1454,0.1454,0,0.1454,0.1454,0.1454,0.1431,0.143,0.143,0.143,0.1418,0.1418,0.1418,0,0,0,0,0,0,0,0,0,0,0,0,0,0.1454,0.1454,0.1454,0.1454,0.1454,0.1454,0.1454,0.1454,0.1431,0.143,0.143,0.1429,0.1418,0.1418,0.1418,0,0,0,0,0,0,0,0,0,0,0,0,0,0.1452,0.1454,0.1454,0.1444,0.1444,0.1454,0.1454,0.1454,0.1431,0.143,0.143,0.1429,0.1418,0.1418,0.1418,0.1432,0,0,0.1418,0.1418,0,0,0,0,0,0,0,0,0.1452,0.1452,0.1446,0.1445,0.1444,0.1443,0.145,0.1446,0.1431,0.1434,0.143,0.1429,0.1427,0.1426,0.1425,0.1431,0.1431,0.1418,0.1419,0.1419,0.1419,0,0,0,0,0,0,0,0.1452,0.1452,0.1452,0.1446,0.1445,0.1447,0.1445,0.1449,0.1433,0.1434,0.1433,0.1435,0.1426,0.1425,0.1425,0.1431,0.1418,0.1419,0.1419,0.1419,0.1463,0.1464,0,0,0,0,0,0,0.1456,0.1452,0.1452,0.1452,0.1449,0.1447,0.1446,0.1443,0.1433,0.1431,0.1436,0.1434,0.1425,0.1425,0.1424,0.1452,0.1419,0.1419,0.1419,0.1462,0.1463,0.1464,0,0,0,0,0,0,0.1456,0.1455,0.1452,0.1454,0.1454,0.1448,0.1445,0.1443,0.1443,0.1435,0.1433,0.1438,0.1425,0.1424,0.1433,0.1451,0.1419,0.1419,0.146,0.1462,0.1463,0.15,0,0,0,0,0,0,0.1455,0.1455,0.1457,0.1454,0.1454,0.1466,0.1446,0.1444,0.1447,0.1444,0.1436,0.1434,0.1424,0.1433,0.1433,0.1451,0.1419,0.1459,0.1461,0.1463,0.1498,0.1503,0.1507,0,0,0,0,0,0.1455,0.1461,0.1457,0.1457,0.1455,0.1467,0.1467,0.1459,0.1447,0.1455,0.1447,0.1434,0.1446,0.1434,0.1434,0.1452,0.1458,0.146,0.1463,0.1496,0.1502,0.1507,0,0,0,0,0,0,0.1459,0.1459,0.1455,0.1459,0.1466,0.1464,0.1471,0.1464,0.1464,0.146,0.1446,0.1444,0.146,0.1453,0.144,0.1472,0.1451,0.1454,0.1476,0.1482,0.1487,0.1482,0.1419,0,0,0,0,0,0.1463,0.1467,0.1469,0.1473,0.1478,0.1475,0.1479,0.1475,0.1474,0.1473,0.1467,0.1465,0.1472,0.1473,0.1477,0.1493,0.1502,0.1506,0.1511,0.1515,0.1513,0.1541,0.1548,0.1472,0.1472,0.1472,0,0,0.1464,0.1467,0.1468,0.1475,0.1478,0.1491,0.1475,0.1486,0.1494,0.1473,0.1483,0.1483,0.148,0.1498,0.1505,0.1493,0.1547,0.1518,0.1522,0.1517,0.1544,0.1552,0.1558,0.1474,0.1473,0.1473,0,0,0.1477,0.1474,0.1485,0.1495,0.1506,0.1506,0.1511,0.1514,0.1514,0.1528,0.1516,0.1525,0.1533,0.1534,0.1536,0.1571,0.1573,0.1577,0.1596,0.1624,0.163,0.1636,0.1678,0.1687,0.1578,0.1578,0.1578,0,0.1479,0.1488,0.1491,0.1508,0.1515,0.1514,0.1528,0.1534,0.1539,0.1544,0.1537,0.1554,0.155,0.157,0.1581,0.1582,0.1603,0.1572,0.163,0.1636,0.1641,0.1682,0.1692,0.158,0.158,0.158,0.1579,0,0.1501,0.151,0.1519,0.1535,0.1547,0.156,0.157,0.158,0.1579,0.1583,0.1604,0.1603,0.1612,0.1618,0.1607,0.1643,0.165,0.1634,0.1613,0.165,0.1692,0.1702,0.1583,0.1582,0.1582,0.1581,0,0,0.1491,0.1526,0.1527,0.1536,0.156,0.1567,0.1591,0.1607,0.1618,0.1632,0.1651,0.1661,0.1661,0.1663,0.1659,0.1678,0.1737,0.1671,0.1672,0.1711,0.1817,0.1808,0.1817,0.1733,0.1734,0.1735,0.1839,0,0.1501,0.1532,0.1547,0.157,0.1583,0.1595,0.1616,0.1633,0.1646,0.1669,0.1678,0.1697,0.168,0.1688,0.1707,0.1728,0.1759,0.171,0.1777,0.1779,0.1763,0.1826,0.1758,0.1844,0.1848,0.185,0.1851,0,0.1508,0.1529,0.1554,0.158,0.1587,0.16,0.1624,0.1645,0.1681,0.1694,0.1719,0.1731,0.1766,0.1743,0.1807,0.1779,0.1802,0.1816,0.182,0.18,0.1786,0.1803,0.186,0.1821,0.1865,0.1864,0.1863,0,0.1488,0.1525,0.154,0.1551,0.1589,0.1597,0.1613,0.1647,0.167,0.1712,0.1744,0.1778,0.181,0.1839,0.1875,0.1847,0.1951,0.1915,0.1933,0.1933,0.1881,0.1874,0.19,0.1963,0.1963,0.1963,0.1962,0,0.1483,0.1492,0.153,0.1538,0.1551,0.1585,0.1604,0.1626,0.1678,0.1705,0.1755,0.1789,0.1835,0.1898,0.1911,0.1966,0.1987,0.1953,0.1962,0.1895,0.1888,0.1854,0.1809,0.1967,0.1966,0.1965,0.1964,0,0.1449,0.148,0.1492,0.153,0.154,0.1544,0.159,0.1605,0.167,0.1714,0.1735,0.1823,0.1895,0.1956,0.2017,0.2022,0.2005,0.2074,0.2002,0.2,0.1947,0.1906,0.186,0.1791,0.2104,0.2104,0.2105,0,0.1431,0.1439,0.147,0.1473,0.1484,0.1505,0.1516,0.158,0.1602,0.172,0.1736,0.1846,0.1896,0.2022,0.205,0.2109,0.2025,0.2077,0.1995,0.1952,0.1913,0.1822,0.1759,0.1957,0.1956,0.1955,0.1955,0,0.1391,0.1401,0.1412,0.1423,0.1429,0.144,0.1466,0.1491,0.1568,0.1631,0.171,0.1773,0.1908,0.1945,0.2047,0.206,0.1963,0.2063,0.2033,0.1815,0.1702,0.1637,0.1894,0.1948,0.1949,0.1949,0.195,0.195,0.1344,0.1339,0.1356,0.1356,0.1365,0.1362,0.1355,0.1399,0.1445,0.1515,0.1618,0.1692,0.1828,0.1954,0.197,0.1971,0.1915,0.1912,0.1876,0.1797,0.1685,0.1937,0.1984,0.1985,0.1985,0.1986,0.1986,0,0.1282,0.1286,0.1288,0.1285,0.1269,0.1297,0.1307,0.1294,0.1315,0.1408,0.1474,0.1609,0.1693,0.1795,0.1874,0.1815,0.1709,0.1753,0.1606,0.1559,0.1813,0.1761,0.1743,0.1743,0.1743,0.1743,0.1743,0.1743,0.1247,0.1229,0.1233,0.1188,0.1187,0.1142,0.1132,0.1128,0.1171,0.1233,0.1305,0.1395,0.1599,0.1743,0.1747,0.1689,0.1534,0.1457,0.1432,0.162,0.1631,0.1642,0.1585,0.153,0.153,0.1121,0.1118,0.1115]},{"header":{"parameterUnit":"m.s-1","parameterCategory":2,"la1":30.2991,"la2":30.254,"lo1":-89.0895,"lo2":-89.0444,"dy":0.0017,"dx":0.0017,"nx":28,"ny":28,"refTime":"2025-04-19T03:00:00:Z","depth":"0","parameterNumber":3,"parameterNumberName":"V-component_of_CURRENTS"},"data":[0,0,0,0,0,0,0,0,0,0,0,0,0,0,0,0,0,0,0,0,0,0,0,0,0,0,0,0,0,0,0,0,0,0,0,0,0,0,0,0,0,0,0,0,0,0,0,0,0,0,0,0,0,0,0,0,0,0,-0.0037,-0.0037,0,-0.0082,-0.0082,-0.0083,-0.0107,-0.0107,-0.0107,-0.0107,-0.0165,-0.0167,-0.0168,0,0,0,0,0,0,0,0,0,0,0,0,0,-0.0003,-0.0003,-0.0037,-0.0037,-0.0038,-0.0082,-0.0082,-0.0083,-0.0107,-0.0107,-0.0107,-0.0107,-0.0165,-0.0167,-0.0168,0,0,0,0,0,0,0,0,0,0,0,0,0,-0.003,-0.0003,-0.0037,-0.0055,-0.0057,-0.0082,-0.0082,-0.0083,-0.0107,-0.0107,-0.0107,-0.0107,-0.0164,-0.0166,-0.0169,-0.0184,0,0,-0.0176,-0.0177,0,0,0,0,0,0,0,0,-0.0029,-0.0032,-0.0051,-0.0053,-0.0056,-0.0088,-0.0092,-0.0117,-0.0107,-0.0089,-0.0107,-0.0107,-0.014,-0.0145,-0.0154,-0.0186,-0.0189,-0.0176,-0.0178,-0.0179,-0.0179,0,0,0,0,0,0,0,-0.0027,-0.003,-0.0055,-0.0052,-0.0055,-0.0071,-0.0075,-0.0097,-0.0115,-0.009,-0.0092,-0.0096,-0.0142,-0.0152,-0.0155,-0.019,-0.0176,-0.0178,-0.018,-0.018,-0.0241,-0.0241,0,0,0,0,0,0,-0.0018,-0.0028,-0.0054,-0.0057,-0.0041,-0.0071,-0.0076,-0.0078,-0.0114,-0.012,-0.0096,-0.0097,-0.0148,-0.0153,-0.0158,-0.0179,-0.0179,-0.0181,-0.0182,-0.0241,-0.0241,-0.0241,0,0,0,0,0,0,-0.0017,-0.002,-0.0052,-0.0043,-0.0048,-0.0072,-0.0075,-0.0079,-0.0088,-0.0118,-0.0124,-0.01,-0.0148,-0.0154,-0.0174,-0.0181,-0.0182,-0.0184,-0.024,-0.0241,-0.0241,-0.0221,0,0,0,0,0,0,-0.0016,-0.0019,-0.0019,-0.0042,-0.0048,-0.0065,-0.0075,-0.008,-0.009,-0.0092,-0.0124,-0.0129,-0.0148,-0.0171,-0.0177,-0.0185,-0.0186,-0.024,-0.024,-0.0241,-0.0221,-0.0221,-0.022,0,0,0,0,0,-0.0015,-0.0014,-0.0019,-0.0022,-0.0047,-0.0064,-0.0069,-0.0087,-0.009,-0.0094,-0.0114,-0.0128,-0.0177,-0.0173,-0.018,-0.0188,-0.024,-0.024,-0.0241,-0.0222,-0.0221,-0.022,0,0,0,0,0,0,-0.0001,-0.0017,-0.0023,-0.0028,-0.0043,-0.0068,-0.0073,-0.0084,-0.0103,-0.0104,-0.013,-0.0137,-0.0158,-0.0175,-0.0169,-0.0207,-0.0212,-0.0213,-0.0195,-0.0194,-0.0193,-0.0184,-0.0188,0,0,0,0,0,0.0003,0.0,-0.0019,-0.0023,-0.0029,-0.005,-0.0059,-0.007,-0.0089,-0.0098,-0.0119,-0.0143,-0.0166,-0.018,-0.0201,-0.0222,-0.023,-0.0232,-0.0232,-0.0231,-0.0228,-0.0248,-0.0249,-0.0242,-0.0242,-0.0242,0,0,0.0007,-0.0002,-0.0004,-0.002,-0.0033,-0.0042,-0.0055,-0.0067,-0.0076,-0.0101,-0.0118,-0.014,-0.017,-0.0192,-0.0204,-0.0207,-0.0235,-0.0231,-0.023,-0.0229,-0.0249,-0.025,-0.025,-0.0243,-0.0243,-0.0243,0,0,0.0014,0.0007,0.0007,-0.0005,-0.0021,-0.0034,-0.0035,-0.0058,-0.0069,-0.0088,-0.0109,-0.0132,-0.0166,-0.019,-0.0206,-0.0214,-0.0228,-0.0223,-0.0215,-0.0235,-0.0235,-0.0236,-0.0236,-0.0237,-0.0225,-0.0225,-0.0225,0,0.002,0.0019,0.0003,-0.0001,-0.0006,-0.0028,-0.003,-0.0047,-0.0074,-0.0081,-0.009,-0.0139,-0.0166,-0.0194,-0.02,-0.0213,-0.0218,-0.0216,-0.0233,-0.0234,-0.0235,-0.0235,-0.0236,-0.0224,-0.0224,-0.0224,-0.0224,0,0.0026,0.0025,0.0024,0.0014,0.0003,-0.0,-0.0023,-0.0033,-0.0047,-0.0066,-0.0092,-0.0129,-0.0156,-0.0173,-0.0192,-0.0215,-0.0213,-0.0227,-0.0233,-0.0234,-0.0234,-0.0236,-0.0222,-0.0223,-0.0223,-0.0223,0,0,0.0046,0.0032,0.0033,0.0036,0.0014,0.001,-0.0004,-0.0019,-0.0017,-0.0057,-0.0059,-0.0115,-0.0131,-0.0151,-0.0179,-0.0204,-0.0217,-0.0218,-0.0219,-0.0213,-0.0244,-0.0225,-0.0225,-0.0234,-0.0234,-0.0235,-0.0236,0,0.0059,0.0064,0.0048,0.0052,0.0056,0.0034,0.0029,0.001,-0.0008,-0.0016,-0.0063,-0.008,-0.0125,-0.0132,-0.0166,-0.0198,-0.0222,-0.0214,-0.0248,-0.0249,-0.0228,-0.0227,-0.0201,-0.0199,-0.0238,-0.0238,-0.0238,0,0.0075,0.0079,0.0088,0.0087,0.0087,0.0083,0.0082,0.0074,0.005,0.0035,0.0001,-0.0028,-0.0071,-0.0104,-0.0171,-0.0162,-0.0203,-0.0234,-0.0235,-0.0225,-0.0233,-0.0207,-0.0201,-0.0274,-0.0241,-0.0241,-0.0241,0,0.0112,0.0109,0.0122,0.012,0.0112,0.0114,0.011,0.0093,0.0103,0.0072,0.0083,0.0015,0.0008,-0.0068,-0.0133,-0.0152,-0.0192,-0.0226,-0.0248,-0.0247,-0.0236,-0.0232,-0.0301,-0.0276,-0.0276,-0.0276,-0.0276,0,0.0139,0.0151,0.0143,0.0152,0.0176,0.0153,0.0178,0.0162,0.0161,0.0189,0.0117,0.0134,0.0017,-0.0019,-0.0104,-0.0166,-0.0171,-0.0242,-0.0248,-0.0227,-0.0223,-0.0295,-0.0358,-0.0276,-0.0276,-0.0276,-0.0276,0,0.0177,0.0172,0.019,0.0189,0.0195,0.0212,0.023,0.0249,0.0241,0.0278,0.0276,0.0233,0.0187,0.0082,-0.0018,-0.0104,-0.0228,-0.0205,-0.0159,-0.0162,-0.0265,-0.0328,-0.0417,-0.0469,-0.0238,-0.0237,-0.0237,0,0.0199,0.0212,0.0225,0.0244,0.0245,0.027,0.0293,0.0288,0.0316,0.035,0.0378,0.0352,0.0347,0.0212,0.0056,-0.0079,-0.0189,-0.0155,-0.0201,-0.0262,-0.0337,-0.039,-0.0432,-0.0175,-0.0174,-0.0173,-0.0173,0,0.0238,0.0241,0.0256,0.0296,0.032,0.0353,0.0386,0.0426,0.0441,0.0488,0.0546,0.0552,0.0436,0.032,0.0133,0.0021,-0.0217,-0.0145,-0.0228,-0.031,-0.0352,-0.0406,-0.0171,-0.0167,-0.0167,-0.0168,-0.0168,-0.0168,0.0271,0.0289,0.0309,0.0346,0.0378,0.0427,0.0472,0.0524,0.0597,0.0676,0.0678,0.0715,0.0548,0.03,0.014,-0.0127,-0.0173,-0.0217,-0.029,-0.0337,-0.039,-0.0129,-0.0121,-0.0122,-0.0122,-0.0122,-0.0122,0,0.0311,0.0327,0.036,0.04,0.0441,0.0451,0.0529,0.0586,0.0692,0.0766,0.0828,0.0789,0.0579,0.0327,-0.0016,-0.0221,-0.0337,-0.0346,-0.0426,-0.0466,-0.024,-0.0238,-0.023,-0.023,-0.023,-0.023,-0.023,-0.023,0.0334,0.037,0.038,0.0445,0.0479,0.0549,0.0601,0.0694,0.0766,0.087,0.0908,0.0921,0.0776,0.0179,-0.0244,-0.0372,-0.0554,-0.0584,-0.0688,-0.0536,-0.053,-0.0524,-0.0535,-0.059,-0.0591,-0.0876,-0.0879,-0.0881]}],[{"header":{"parameterUnit":"m.s-1","parameterCategory":2,"la1":30.2991,"la2":30.254,"lo1":-89.0895,"lo2":-89.0444,"dy":0.0017,"dx":0.0017,"nx":28,"ny":28,"refTime":"2025-04-19T03:00:00:Z","depth":"2","parameterNumber":2,"parameterNumberName":"U-component_of_CURRENTS"},"data":[0,0,0,0,0,0,0,0,0,0,0,0,0,0,0,0,0,0,0,0,0,0,0,0,0,0,0,0,0,0,0,0,0,0,0,0,0,0,0,0,0,0,0,0,0,0,0,0,0,0,0,0,0,0,0,0,0,0,0.1511,0.1511,0,0.1513,0.1513,0.1513,0.1491,0.1491,0.149,0.149,0.1481,0.1482,0.1482,0,0,0,0,0,0,0,0,0,0,0,0,0,0.1509,0.1509,0.1511,0.1511,0.1511,0.1513,0.1513,0.1513,0.1491,0.1491,0.149,0.149,0.1481,0.1481,0.1482,0,0,0,0,0,0,0,0,0,0,0,0,0,0.1509,0.1509,0.1511,0.1502,0.1501,0.1513,0.1513,0.1513,0.1491,0.1491,0.149,0.1489,0.1481,0.1481,0.1482,0.1498,0,0,0.1483,0.1483,0,0,0,0,0,0,0,0,0.1509,0.1509,0.1503,0.1502,0.1502,0.1502,0.1509,0.1508,0.1492,0.1493,0.149,0.1489,0.1489,0.1489,0.1488,0.1497,0.1497,0.1483,0.1483,0.1483,0.1483,0,0,0,0,0,0,0,0.1509,0.1509,0.151,0.1503,0.1502,0.1505,0.1504,0.1509,0.1494,0.1493,0.1492,0.1495,0.1488,0.1488,0.1488,0.1497,0.1483,0.1483,0.1483,0.1483,0.1533,0.1535,0,0,0,0,0,0,0.1511,0.1509,0.151,0.151,0.1505,0.1506,0.1504,0.1502,0.1494,0.1492,0.1495,0.1494,0.1488,0.1488,0.1488,0.1518,0.1483,0.1483,0.1484,0.1532,0.1534,0.1535,0,0,0,0,0,0,0.1511,0.1511,0.151,0.1511,0.1511,0.1506,0.1504,0.1502,0.1503,0.1496,0.1494,0.1498,0.1488,0.1487,0.1498,0.1517,0.1483,0.1484,0.1531,0.1533,0.1534,0.1571,0,0,0,0,0,0,0.1511,0.1511,0.1513,0.1511,0.1511,0.1525,0.1504,0.1503,0.1506,0.1504,0.1497,0.1496,0.1487,0.1498,0.1499,0.1517,0.1484,0.1529,0.1532,0.1534,0.1568,0.1574,0.1578,0,0,0,0,0,0.1511,0.1517,0.1513,0.1513,0.1513,0.1526,0.1527,0.152,0.1507,0.1515,0.1509,0.1496,0.1512,0.1499,0.15,0.1518,0.1528,0.1531,0.1534,0.1566,0.1573,0.1578,0,0,0,0,0,0,0.1515,0.1516,0.1511,0.1516,0.1524,0.1523,0.1531,0.1524,0.1526,0.1522,0.1509,0.1508,0.1526,0.152,0.1506,0.1541,0.1519,0.1522,0.1544,0.155,0.1555,0.1549,0.1484,0,0,0,0,0,0.1518,0.1523,0.1526,0.1531,0.1537,0.1534,0.1539,0.1535,0.1536,0.1535,0.1531,0.153,0.1538,0.1541,0.1546,0.1564,0.1572,0.1578,0.1583,0.1588,0.1585,0.1614,0.1621,0.1543,0.1543,0.1543,0,0,0.1521,0.1523,0.1525,0.1533,0.1537,0.1551,0.1535,0.1547,0.1556,0.1536,0.1548,0.1548,0.1547,0.1568,0.1575,0.1563,0.1619,0.1591,0.1594,0.1589,0.1618,0.1625,0.1632,0.1545,0.1545,0.1545,0,0,0.1534,0.1532,0.1543,0.1554,0.1567,0.1567,0.1572,0.1577,0.1577,0.1593,0.1582,0.1592,0.1602,0.1605,0.1608,0.1645,0.1646,0.1651,0.167,0.1699,0.1706,0.1711,0.1752,0.1761,0.1652,0.1652,0.1652,0,0.1537,0.1547,0.1551,0.1569,0.1576,0.1575,0.159,0.1598,0.1605,0.161,0.1603,0.1623,0.162,0.1643,0.1654,0.1656,0.1676,0.1645,0.1705,0.1711,0.1716,0.1757,0.1766,0.1654,0.1654,0.1654,0.1654,0,0.1561,0.157,0.1581,0.1598,0.1611,0.1624,0.1635,0.1647,0.1646,0.165,0.1674,0.1675,0.1685,0.1691,0.1681,0.1719,0.1724,0.1709,0.1688,0.1726,0.1767,0.1776,0.1657,0.1657,0.1656,0.1656,0,0,0.1551,0.1588,0.1589,0.1599,0.1624,0.1633,0.1659,0.1676,0.1688,0.1703,0.1723,0.1736,0.1735,0.1738,0.1734,0.1754,0.1813,0.1747,0.1748,0.1784,0.1893,0.1872,0.1879,0.181,0.1811,0.1812,0.1914,0,0.1562,0.1595,0.1612,0.1636,0.165,0.1663,0.1684,0.1703,0.1717,0.1741,0.1752,0.1771,0.1755,0.1762,0.1783,0.1804,0.1835,0.1787,0.1853,0.1855,0.1828,0.1888,0.1701,0.1773,0.1923,0.1924,0.1925,0,0.157,0.1592,0.1618,0.1647,0.1654,0.1668,0.1693,0.1715,0.1753,0.1767,0.1792,0.1805,0.1842,0.1819,0.1883,0.1856,0.1878,0.1892,0.1896,0.1864,0.1849,0.1755,0.1784,0.194,0.1939,0.1938,0.1937,0,0.1548,0.1587,0.1604,0.1616,0.1656,0.1664,0.1681,0.1717,0.174,0.1784,0.1816,0.1852,0.1885,0.1914,0.1949,0.1923,0.2025,0.1992,0.1998,0.1998,0.1844,0.1827,0.204,0.204,0.204,0.204,0.2039,0,0.1543,0.1553,0.1593,0.1602,0.1615,0.165,0.167,0.1694,0.1747,0.1774,0.1826,0.186,0.191,0.1971,0.1984,0.2033,0.206,0.2016,0.2024,0.1854,0.1838,0.1975,0.1966,0.2044,0.2043,0.2042,0.2041,0,0.1508,0.1539,0.1553,0.1593,0.1603,0.1608,0.1655,0.1671,0.1736,0.178,0.1801,0.1891,0.196,0.2022,0.2084,0.2085,0.2123,0.2131,0.1939,0.1921,0.2069,0.2061,0.2148,0.2148,0.2148,0.2148,0.2149,0,0.1489,0.1497,0.153,0.1533,0.1545,0.1567,0.1578,0.1643,0.1666,0.1782,0.1799,0.1907,0.1952,0.2072,0.2077,0.2126,0.215,0.1991,0.1894,0.2082,0.2081,0.2073,0.2065,0.1716,0.1713,0.171,0.1707,0,0.1448,0.1458,0.147,0.1481,0.1487,0.15,0.1527,0.1551,0.1629,0.1691,0.1766,0.1825,0.1933,0.1899,0.1984,0.1975,0.1965,0.1936,0.2187,0.1718,0.1683,0.1679,0.1684,0.1682,0.1685,0.1687,0.1688,0.1689,0.14,0.1396,0.1413,0.1413,0.1422,0.142,0.1414,0.1461,0.1506,0.1573,0.1662,0.17,0.1746,0.1773,0.1746,0.173,0.1862,0.1772,0.1777,0.1786,0.1718,0.1685,0.1673,0.1676,0.1678,0.1679,0.1681,0,0.1337,0.1341,0.1344,0.1342,0.1328,0.1354,0.1366,0.1364,0.1388,0.1454,0.1508,0.1427,0.1421,0.147,0.1409,0.1444,0.1389,0.1381,0.1278,0.1306,0.133,0.1234,0.1063,0.1062,0.106,0.1058,0,0,0.1302,0.1285,0.1289,0.1247,0.1245,0.1212,0.1204,0.1223,0.1255,0.1261,0.1258,0.1354,0.1427,0.122,0.1209,0.1122,0.1197,0.1076,0.1572,0.1478,0.15,0.1563,0.1449,0,0,0,0,0]},{"header":{"parameterUnit":"m.s-1","parameterCategory":2,"la1":30.2991,"la2":30.254,"lo1":-89.0895,"lo2":-89.0444,"dy":0.0017,"dx":0.0017,"nx":28,"ny":28,"refTime":"2025-04-19T03:00:00:Z","depth":"2","parameterNumber":3,"parameterNumberName":"V-component_of_CURRENTS"},"data":[0,0,0,0,0,0,0,0,0,0,0,0,0,0,0,0,0,0,0,0,0,0,0,0,0,0,0,0,0,0,0,0,0,0,0,0,0,0,0,0,0,0,0,0,0,0,0,0,0,0,0,0,0,0,0,0,0,0,-0.0083,-0.0083,0,-0.0126,-0.0126,-0.0127,-0.015,-0.015,-0.015,-0.015,-0.0207,-0.0208,-0.021,0,0,0,0,0,0,0,0,0,0,0,0,0,-0.0052,-0.0052,-0.0083,-0.0083,-0.0084,-0.0125,-0.0126,-0.0127,-0.015,-0.015,-0.015,-0.015,-0.0206,-0.0208,-0.021,0,0,0,0,0,0,0,0,0,0,0,0,0,-0.0078,-0.0053,-0.0083,-0.01,-0.0102,-0.0125,-0.0126,-0.0127,-0.015,-0.015,-0.015,-0.015,-0.0206,-0.0208,-0.021,-0.0225,0,0,-0.0217,-0.0218,0,0,0,0,0,0,0,0,-0.0076,-0.0079,-0.0097,-0.0098,-0.0101,-0.0132,-0.0136,-0.016,-0.015,-0.0132,-0.015,-0.015,-0.0182,-0.0187,-0.0196,-0.0228,-0.023,-0.0217,-0.0219,-0.022,-0.022,0,0,0,0,0,0,0,-0.0075,-0.0078,-0.01,-0.0097,-0.01,-0.0116,-0.0119,-0.0141,-0.0158,-0.0134,-0.0136,-0.0139,-0.0184,-0.0193,-0.0197,-0.0231,-0.0217,-0.0219,-0.0221,-0.0222,-0.028,-0.028,0,0,0,0,0,0,-0.0066,-0.0076,-0.0099,-0.0102,-0.0087,-0.0116,-0.012,-0.0122,-0.0158,-0.0162,-0.0139,-0.014,-0.019,-0.0195,-0.0199,-0.0219,-0.022,-0.0222,-0.0223,-0.028,-0.028,-0.028,0,0,0,0,0,0,-0.0065,-0.0068,-0.0097,-0.0089,-0.0094,-0.0116,-0.0119,-0.0123,-0.0131,-0.0161,-0.0166,-0.0142,-0.019,-0.0196,-0.0215,-0.0222,-0.0223,-0.0225,-0.028,-0.028,-0.028,-0.0259,0,0,0,0,0,0,-0.0064,-0.0067,-0.0066,-0.0088,-0.0094,-0.0108,-0.0119,-0.0124,-0.0133,-0.0135,-0.0166,-0.0171,-0.019,-0.0212,-0.0217,-0.0225,-0.0227,-0.028,-0.028,-0.028,-0.0259,-0.0258,-0.0257,0,0,0,0,0,-0.0063,-0.0061,-0.0066,-0.0069,-0.0092,-0.0108,-0.0112,-0.0129,-0.0133,-0.0136,-0.0155,-0.017,-0.0218,-0.0213,-0.022,-0.0228,-0.0279,-0.028,-0.028,-0.026,-0.0258,-0.0257,0,0,0,0,0,0,-0.0048,-0.0064,-0.007,-0.0073,-0.0087,-0.0112,-0.0116,-0.0126,-0.0144,-0.0145,-0.0171,-0.0178,-0.0198,-0.0215,-0.0209,-0.0246,-0.0252,-0.0254,-0.0234,-0.0233,-0.0232,-0.0223,-0.0229,0,0,0,0,0,-0.0044,-0.0046,-0.0065,-0.0067,-0.0072,-0.0093,-0.0101,-0.0112,-0.0131,-0.0138,-0.016,-0.0183,-0.0206,-0.0219,-0.0241,-0.026,-0.0269,-0.0271,-0.027,-0.0269,-0.0266,-0.0286,-0.0286,-0.0282,-0.0282,-0.0282,0,0,-0.0039,-0.0048,-0.0049,-0.0064,-0.0076,-0.0084,-0.0098,-0.0108,-0.0116,-0.0142,-0.0158,-0.018,-0.021,-0.0231,-0.0242,-0.0246,-0.0272,-0.0269,-0.0268,-0.0266,-0.0286,-0.0286,-0.0287,-0.0282,-0.0282,-0.0282,0,0,-0.003,-0.0037,-0.0036,-0.0047,-0.0061,-0.0075,-0.0075,-0.0097,-0.0108,-0.0126,-0.0147,-0.017,-0.0204,-0.0227,-0.0244,-0.0251,-0.0265,-0.0259,-0.0251,-0.027,-0.027,-0.027,-0.027,-0.0271,-0.0261,-0.0261,-0.0261,0,-0.0023,-0.0024,-0.0039,-0.0041,-0.0046,-0.0068,-0.0068,-0.0085,-0.0111,-0.0118,-0.0127,-0.0176,-0.0203,-0.023,-0.0236,-0.0249,-0.0254,-0.0251,-0.0268,-0.0268,-0.0269,-0.0269,-0.027,-0.026,-0.026,-0.026,-0.026,0,-0.0015,-0.0015,-0.0015,-0.0024,-0.0033,-0.0036,-0.0058,-0.0068,-0.0082,-0.01,-0.0126,-0.0163,-0.019,-0.0207,-0.0226,-0.0248,-0.0247,-0.0262,-0.0268,-0.0268,-0.0268,-0.027,-0.0259,-0.0259,-0.0259,-0.0259,0,0,0.0008,-0.0005,-0.0004,-0.0001,-0.0021,-0.0025,-0.0038,-0.0052,-0.005,-0.0088,-0.009,-0.0146,-0.0163,-0.0183,-0.0211,-0.0235,-0.0248,-0.025,-0.0252,-0.0245,-0.0275,-0.0259,-0.0259,-0.0265,-0.0266,-0.0266,-0.0268,0,0.0023,0.0029,0.0014,0.0019,0.0024,0.0001,-0.0003,-0.0021,-0.0039,-0.0047,-0.0094,-0.011,-0.0155,-0.0163,-0.0197,-0.023,-0.0253,-0.0245,-0.028,-0.028,-0.0263,-0.0261,-0.0262,-0.0263,-0.0269,-0.027,-0.027,0,0.0041,0.0045,0.0056,0.0055,0.0055,0.0052,0.0052,0.0044,0.002,0.0005,-0.0028,-0.0057,-0.0099,-0.0133,-0.02,-0.0191,-0.0232,-0.0263,-0.0264,-0.0259,-0.0268,-0.0267,-0.0265,-0.0272,-0.0272,-0.0272,-0.0272,0,0.0077,0.0076,0.009,0.0088,0.0081,0.0084,0.008,0.0063,0.0074,0.0043,0.0054,-0.0013,-0.0021,-0.0096,-0.0162,-0.0181,-0.0221,-0.0255,-0.0281,-0.0279,-0.0291,-0.029,-0.0304,-0.0304,-0.0304,-0.0304,-0.0304,0,0.0105,0.0118,0.0111,0.012,0.0145,0.0123,0.0148,0.0132,0.0132,0.0158,0.0089,0.0103,-0.0011,-0.0047,-0.0133,-0.0197,-0.02,-0.0274,-0.0281,-0.0282,-0.0281,-0.0302,-0.0302,-0.0304,-0.0304,-0.0304,-0.0304,0,0.0144,0.0139,0.0157,0.0157,0.0164,0.0181,0.02,0.0218,0.0211,0.0247,0.0244,0.0201,0.0154,0.005,-0.005,-0.0135,-0.0214,-0.0238,-0.0219,-0.0225,-0.0269,-0.0268,-0.0276,-0.0275,-0.0275,-0.0275,-0.0274,0,0.0165,0.0179,0.0193,0.0212,0.0213,0.0238,0.0261,0.0257,0.0283,0.0316,0.0342,0.0315,0.0302,0.0167,0.0008,-0.0129,-0.0164,-0.0221,-0.0271,-0.0261,-0.0268,-0.0267,-0.0266,-0.0275,-0.0275,-0.0275,-0.0274,0,0.0204,0.0207,0.0223,0.0262,0.0286,0.0319,0.0351,0.039,0.0404,0.0445,0.0496,0.0495,0.0373,0.023,0.0043,-0.006,-0.0205,-0.022,-0.0216,-0.0278,-0.0259,-0.0266,-0.0266,-0.0273,-0.0273,-0.0273,-0.0273,-0.0273,0.0235,0.0253,0.0273,0.031,0.0341,0.0389,0.0431,0.047,0.0535,0.058,0.0586,0.0566,0.0422,0.0167,0.002,-0.0157,-0.0163,-0.0253,-0.0255,-0.0256,-0.0251,-0.0233,-0.0239,-0.0239,-0.0239,-0.0239,-0.0239,0,0.0268,0.0288,0.0321,0.036,0.0394,0.041,0.0485,0.0507,0.0586,0.0618,0.0641,0.0481,0.0351,0.0187,-0.007,-0.0211,-0.024,-0.026,-0.0276,-0.0277,-0.0278,-0.0275,-0.0269,-0.027,-0.027,-0.027,0,0,0.0289,0.032,0.033,0.0389,0.0426,0.0479,0.0528,0.0558,0.058,0.0582,0.0569,0.0542,0.0375,0.0181,-0.0001,-0.0139,-0.018,-0.0168,-0.0132,-0.0131,-0.013,-0.0264,-0.0259,0,0,0,0,0]}],[{"header":{"parameterUnit":"m.s-1","parameterCategory":2,"la1":30.2991,"la2":30.254,"lo1":-89.0895,"lo2":-89.0444,"dy":0.0017,"dx":0.0017,"nx":28,"ny":28,"refTime":"2025-04-19T03:00:00:Z","depth":"4","parameterNumber":2,"parameterNumberName":"U-component_of_CURRENTS"},"data":[0,0,0,0,0,0,0,0,0,0,0,0,0,0,0,0,0,0,0,0,0,0,0,0,0,0,0,0,0,0,0,0,0,0,0,0,0,0,0,0,0,0,0,0,0,0,0,0,0,0,0,0,0,0,0,0,0,0,0.103,0.1031,0,0.1057,0.1057,0.1058,0.1089,0.1089,0.109,0.109,0.1126,0.1127,0.1127,0,0,0,0,0,0,0,0,0,0,0,0,0,0.0994,0.0994,0.103,0.1031,0.1031,0.1057,0.1057,0.1058,0.1089,0.1089,0.109,0.1091,0.1126,0.1126,0.1127,0,0,0,0,0,0,0,0,0,0,0,0,0,0.1013,0.0995,0.103,0.1051,0.1053,0.1057,0.1057,0.1058,0.1088,0.1089,0.109,0.1091,0.1126,0.1126,0.1127,0.1113,0,0,0.1129,0.1129,0,0,0,0,0,0,0,0,0.1012,0.1014,0.1047,0.1049,0.1052,0.1072,0.1058,0.1077,0.1088,0.1074,0.1091,0.1092,0.1109,0.1111,0.1112,0.1114,0.1116,0.1129,0.1129,0.1129,0.113,0,0,0,0,0,0,0,0.101,0.1013,0.104,0.1048,0.1051,0.1055,0.1058,0.1061,0.1085,0.1075,0.1078,0.1082,0.111,0.1111,0.1113,0.1116,0.1129,0.1129,0.113,0.113,0.1176,0.1177,0,0,0,0,0,0,0.101,0.1012,0.1039,0.104,0.1035,0.1055,0.1059,0.1063,0.1085,0.1089,0.1082,0.1084,0.111,0.1112,0.1114,0.1161,0.1129,0.113,0.113,0.1175,0.1176,0.1177,0,0,0,0,0,0,0.1009,0.1012,0.1038,0.1028,0.1032,0.1055,0.1059,0.1063,0.1086,0.109,0.1095,0.1103,0.1111,0.1114,0.1136,0.116,0.113,0.1131,0.1174,0.1176,0.1177,0.1213,0,0,0,0,0,0,0.1007,0.1011,0.1023,0.1028,0.1032,0.1051,0.1059,0.1063,0.1087,0.109,0.1109,0.1112,0.1112,0.1135,0.1137,0.116,0.1131,0.1173,0.1175,0.1176,0.1211,0.1216,0.122,0,0,0,0,0,0.1006,0.1013,0.1024,0.1028,0.1045,0.1051,0.1054,0.1072,0.1087,0.1096,0.1114,0.1113,0.1147,0.1136,0.1138,0.1162,0.1172,0.1174,0.1176,0.1209,0.1215,0.122,0,0,0,0,0,0,0.1003,0.1017,0.1029,0.1041,0.1052,0.1058,0.1071,0.1082,0.1102,0.1114,0.1119,0.1123,0.1151,0.115,0.1139,0.118,0.1161,0.1164,0.1186,0.1191,0.1195,0.1198,0.1132,0,0,0,0,0,0.1008,0.1019,0.1031,0.1043,0.1051,0.1066,0.1075,0.1087,0.1101,0.1112,0.1126,0.1143,0.1155,0.117,0.1176,0.1197,0.1202,0.1215,0.122,0.1224,0.1228,0.1278,0.1288,0.1184,0.1184,0.1184,0,0,0.101,0.102,0.1028,0.1044,0.1057,0.1067,0.1074,0.1093,0.1109,0.1111,0.1145,0.1156,0.1163,0.1188,0.1201,0.1195,0.1249,0.1226,0.1229,0.1231,0.1281,0.1291,0.13,0.1185,0.1185,0.1185,0,0,0.101,0.1031,0.1038,0.1051,0.1074,0.1081,0.1091,0.111,0.1129,0.1153,0.1164,0.119,0.1209,0.1222,0.1229,0.1261,0.1267,0.1271,0.1302,0.1351,0.136,0.1368,0.136,0.1367,0.1279,0.1279,0.1279,0,0.1015,0.1026,0.1041,0.1053,0.1068,0.109,0.1101,0.1119,0.1145,0.1163,0.117,0.1213,0.1222,0.1254,0.1274,0.1271,0.1288,0.1281,0.1358,0.1366,0.1374,0.1364,0.1372,0.1281,0.128,0.128,0.128,0,0.1014,0.1033,0.104,0.1063,0.1079,0.1095,0.1119,0.1146,0.1173,0.1189,0.1231,0.1248,0.128,0.1287,0.1294,0.1355,0.1342,0.1354,0.1345,0.1387,0.1373,0.138,0.1283,0.1283,0.1282,0.1282,0,0,0.0998,0.1033,0.1039,0.1055,0.109,0.1099,0.1135,0.1166,0.1199,0.1228,0.1266,0.1298,0.1323,0.1334,0.1351,0.1393,0.1456,0.141,0.1412,0.1402,0.1539,0.1456,0.1456,0.1499,0.1502,0.1503,0.1496,0,0.0996,0.1018,0.1037,0.1064,0.1078,0.1115,0.1144,0.118,0.1219,0.1262,0.1289,0.1331,0.1337,0.137,0.1415,0.1451,0.1482,0.1454,0.15,0.1499,0.1424,0.1465,0.151,0.1502,0.1503,0.1505,0.1505,0,0.0985,0.1004,0.103,0.1071,0.1082,0.1106,0.1167,0.1201,0.1262,0.1298,0.1348,0.1372,0.1431,0.1438,0.1514,0.1505,0.1531,0.1546,0.1547,0.1465,0.1432,0.1459,0.1518,0.1517,0.1516,0.1516,0.1515,0,0.0958,0.0997,0.102,0.1036,0.1085,0.1113,0.115,0.1214,0.125,0.1336,0.137,0.1432,0.1474,0.1528,0.1568,0.1562,0.164,0.1628,0.156,0.1551,0.161,0.1602,0.1685,0.1685,0.1685,0.1685,0.1685,0,0.0938,0.0959,0.1015,0.1028,0.1066,0.111,0.1164,0.1217,0.1285,0.1327,0.1399,0.1434,0.1513,0.1558,0.1586,0.1592,0.1658,0.1566,0.1559,0.1619,0.1612,0.1613,0.1605,0.1685,0.1685,0.1685,0.1685,0,0.09,0.0937,0.0969,0.103,0.1053,0.1087,0.1164,0.1201,0.1283,0.1343,0.1372,0.1453,0.1518,0.1563,0.1638,0.1602,0.1623,0.161,0.1645,0.1639,0.1483,0.1477,0.1509,0.1507,0.1504,0.1502,0.1501,0,0.0879,0.0893,0.0966,0.0992,0.1024,0.1082,0.1117,0.1198,0.1235,0.134,0.1355,0.1439,0.1487,0.1498,0.1572,0.1593,0.159,0.1565,0.1542,0.1482,0.1473,0.147,0.1467,0.1497,0.1497,0.1496,0.1496,0,0.0842,0.088,0.0909,0.0962,0.1006,0.1045,0.1102,0.1113,0.1205,0.128,0.1309,0.1337,0.1397,0.1441,0.1476,0.1495,0.1562,0.1541,0.1545,0.1523,0.1468,0.146,0.146,0.1488,0.1489,0.149,0.149,0,0.0822,0.0836,0.0884,0.0922,0.0976,0.0994,0.1027,0.106,0.1097,0.1198,0.1207,0.1302,0.1378,0.1391,0.1429,0.1439,0.1414,0.136,0.1373,0.1382,0.1351,0.1263,0.1219,0,0,0,0,0,0.0797,0.0806,0.084,0.0875,0.0925,0.0956,0.1011,0.1043,0.1117,0.1106,0.1149,0.1201,0.1245,0.1295,0.1282,0.1386,0.1429,0.1366,0.1375,0.1445,0.1454,0.1433,0,0,0,0,0,0,0.0782,0.0811,0.0819,0.0829,0.0846,0.0889,0.0921,0.0968,0.0961,0.1041,0.1072,0.1134,0.12,0.1247,0.1263,0.128,0.1261,0.1425,0.1422,0.144,0.1448,0.1455,0.1436,0,0,0,0,0]},{"header":{"parameterUnit":"m.s-1","parameterCategory":2,"la1":30.2991,"la2":30.254,"lo1":-89.0895,"lo2":-89.0444,"dy":0.0017,"dx":0.0017,"nx":28,"ny":28,"refTime":"2025-04-19T03:00:00:Z","depth":"4","parameterNumber":3,"parameterNumberName":"V-component_of_CURRENTS"},"data":[0,0,0,0,0,0,0,0,0,0,0,0,0,0,0,0,0,0,0,0,0,0,0,0,0,0,0,0,0,0,0,0,0,0,0,0,0,0,0,0,0,0,0,0,0,0,0,0,0,0,0,0,0,0,0,0,0,0,-0.0103,-0.0104,0,-0.0123,-0.0123,-0.0123,-0.0144,-0.0145,-0.0145,-0.0145,-0.0182,-0.0183,-0.0183,0,0,0,0,0,0,0,0,0,0,0,0,0,-0.0103,-0.0103,-0.0103,-0.0104,-0.0104,-0.0123,-0.0123,-0.0123,-0.0144,-0.0145,-0.0145,-0.0145,-0.0182,-0.0183,-0.0183,0,0,0,0,0,0,0,0,0,0,0,0,0,-0.0111,-0.0103,-0.0103,-0.0116,-0.0118,-0.0122,-0.0123,-0.0123,-0.0144,-0.0145,-0.0145,-0.0146,-0.0181,-0.0182,-0.0184,-0.0182,0,0,-0.0187,-0.0187,0,0,0,0,0,0,0,0,-0.0111,-0.0111,-0.0114,-0.0115,-0.0117,-0.0131,-0.0136,-0.0144,-0.0144,-0.0135,-0.0145,-0.0146,-0.0166,-0.0168,-0.0171,-0.0184,-0.0185,-0.0187,-0.0188,-0.0188,-0.0188,0,0,0,0,0,0,0,-0.011,-0.0111,-0.0111,-0.0114,-0.0116,-0.0127,-0.0129,-0.0138,-0.0148,-0.0136,-0.0137,-0.0138,-0.0167,-0.017,-0.0172,-0.0186,-0.0187,-0.0188,-0.0189,-0.0189,-0.0184,-0.0183,0,0,0,0,0,0,-0.0105,-0.011,-0.0111,-0.0112,-0.0114,-0.0127,-0.0129,-0.0127,-0.0148,-0.0151,-0.0138,-0.0139,-0.0168,-0.0171,-0.0174,-0.0152,-0.0188,-0.0189,-0.019,-0.0185,-0.0184,-0.0183,0,0,0,0,0,0,-0.0105,-0.0105,-0.011,-0.0111,-0.0113,-0.0126,-0.0124,-0.0127,-0.0133,-0.015,-0.0154,-0.0142,-0.0169,-0.0172,-0.0176,-0.0155,-0.019,-0.0191,-0.0186,-0.0184,-0.0183,-0.0123,0,0,0,0,0,0,-0.0105,-0.0105,-0.0104,-0.0111,-0.0112,-0.0107,-0.0124,-0.0127,-0.0133,-0.0135,-0.0154,-0.0158,-0.0169,-0.0174,-0.0177,-0.0157,-0.0191,-0.0187,-0.0185,-0.0184,-0.0126,-0.012,-0.0115,0,0,0,0,0,-0.0105,-0.0096,-0.0103,-0.0104,-0.011,-0.0107,-0.0108,-0.012,-0.0132,-0.0129,-0.0141,-0.0157,-0.0167,-0.0175,-0.0178,-0.0158,-0.0187,-0.0186,-0.0184,-0.0129,-0.0121,-0.0115,0,0,0,0,0,0,-0.0095,-0.0097,-0.0106,-0.0099,-0.0102,-0.011,-0.0109,-0.0119,-0.0127,-0.0131,-0.015,-0.0154,-0.0149,-0.0164,-0.0172,-0.0152,-0.0179,-0.0177,-0.0135,-0.0129,-0.0123,-0.0112,-0.0192,0,0,0,0,0,-0.0092,-0.0087,-0.0093,-0.0088,-0.0088,-0.01,-0.0103,-0.0109,-0.0117,-0.0121,-0.0133,-0.0143,-0.0143,-0.0145,-0.0152,-0.0143,-0.0166,-0.0132,-0.0126,-0.0121,-0.0114,-0.0135,-0.013,-0.0177,-0.0177,-0.0177,0,0,-0.0087,-0.0088,-0.0086,-0.0086,-0.0091,-0.0078,-0.0102,-0.0101,-0.0088,-0.0123,-0.0112,-0.0126,-0.0138,-0.0125,-0.0123,-0.0135,-0.0119,-0.0119,-0.0115,-0.011,-0.0132,-0.0128,-0.0124,-0.0176,-0.0176,-0.0176,0,0,-0.0067,-0.0076,-0.0061,-0.0059,-0.0061,-0.0066,-0.0064,-0.007,-0.0071,-0.0065,-0.0081,-0.0081,-0.009,-0.0085,-0.0086,-0.0054,-0.0091,-0.0059,-0.0019,-0.0038,-0.0035,-0.0032,-0.0052,-0.0051,-0.0054,-0.0054,-0.0054,0,-0.006,-0.0045,-0.0057,-0.0039,-0.0035,-0.0056,-0.0037,-0.0036,-0.0041,-0.0037,-0.0054,-0.0053,-0.0066,-0.0039,-0.0027,-0.0039,-0.0064,-0.0042,-0.0031,-0.0029,-0.0027,-0.0048,-0.0048,-0.0051,-0.0051,-0.0051,-0.0052,0,-0.0025,-0.0014,-0.0005,0.0011,0.0015,0.0026,0.0026,0.0031,0.0021,0.002,0.0034,0.002,0.0018,0.0021,0.0006,0.0023,-0.0002,-0.0024,-0.0048,-0.0018,-0.0043,-0.0044,-0.0046,-0.0047,-0.0048,-0.0049,0,0,-0.0006,0.0016,0.0019,0.0031,0.004,0.0047,0.0072,0.0086,0.0098,0.0097,0.0115,0.0122,0.0101,0.0099,0.0083,0.0076,0.0069,0.0034,0.0031,0.0016,0.002,-0.0008,-0.0013,0.0042,0.0042,0.0042,-0.0002,0,0.0025,0.0061,0.0067,0.01,0.0116,0.0111,0.0136,0.0145,0.0143,0.0155,0.0152,0.0157,0.0135,0.0129,0.0122,0.0078,0.0068,0.0083,-0.0008,-0.001,-0.0037,-0.0014,0.0043,-0.0003,-0.0004,-0.0004,-0.0004,0,0.0058,0.0076,0.0113,0.0138,0.0145,0.0164,0.0183,0.0202,0.0217,0.0214,0.0221,0.0205,0.0208,0.0174,0.0129,0.0134,0.0083,0.0051,0.0048,0.0001,-0.004,-0.004,-0.0007,-0.0007,-0.0006,-0.0006,-0.0006,0,0.0068,0.0107,0.0133,0.0144,0.0172,0.0189,0.0201,0.0219,0.0233,0.0245,0.0247,0.0246,0.023,0.0185,0.0113,0.0114,0.0048,0.0037,-0.0027,-0.0031,-0.002,-0.0023,0.0003,0.0004,0.0004,0.0004,0.0004,0,0.0094,0.0115,0.014,0.0155,0.0186,0.02,0.023,0.0241,0.0261,0.028,0.0271,0.0275,0.0226,0.0182,0.0123,0.004,0.0049,-0.0014,-0.0041,0.0007,0.0007,-0.0021,-0.0023,0.0002,0.0002,0.0003,0.0003,0,0.0099,0.0118,0.0147,0.0179,0.0191,0.0208,0.0242,0.0264,0.0275,0.0298,0.0301,0.0287,0.023,0.0173,0.0091,0.0041,-0.0028,-0.0064,-0.0009,-0.0034,-0.0091,-0.009,-0.0122,-0.0123,-0.0124,-0.0125,-0.0126,0,0.0107,0.0122,0.0155,0.0171,0.0187,0.0216,0.024,0.0266,0.0287,0.0303,0.0313,0.0273,0.0252,0.0128,0.0059,-0.0048,-0.0069,-0.0107,-0.0086,-0.008,-0.0103,-0.01,-0.0097,-0.0128,-0.0128,-0.0128,-0.0128,0,0.0115,0.0122,0.0142,0.0173,0.0199,0.0232,0.0265,0.0282,0.0313,0.0324,0.032,0.0271,0.0205,0.0124,0.0028,-0.0047,-0.0076,-0.0119,-0.0116,-0.0096,-0.0087,-0.0108,-0.0104,-0.0132,-0.0132,-0.0131,-0.0131,0,0.0112,0.0121,0.0143,0.0169,0.0203,0.0236,0.0259,0.0286,0.0308,0.033,0.0324,0.0268,0.024,0.0122,0.0038,-0.0042,-0.0053,-0.0075,-0.0075,-0.0072,-0.0047,-0.0028,-0.0071,0,0,0,0,0,0.0107,0.0114,0.0139,0.0168,0.0203,0.0219,0.0272,0.0295,0.0325,0.0324,0.0327,0.027,0.0161,0.0118,0.0035,0.0011,-0.0077,-0.0091,-0.0104,-0.0153,-0.0149,-0.013,0,0,0,0,0,0,0.0102,0.0119,0.0131,0.0161,0.0176,0.0216,0.0247,0.0272,0.0277,0.0298,0.0245,0.0232,0.0127,0.0199,0.0023,0.0001,-0.0021,-0.0137,-0.0139,-0.0156,-0.0152,-0.0148,-0.0127,0,0,0,0,0]}]]